Location: Chèvreville
(49.1099°N, 2.8495°E)
Time: 14:28:22
(UTC+00:00)

SO-50 - Pass Details

Date: 09 December 2023
Orbit: 608 x 661 km, 64.6° (Epoch: 28 February)

Event Time Altitude Azimuth Distance (km) Brightness Sun altitude
Exits shadow 06:24:26 - 329° (NNW) 2,183 ? -10.3°
Reaches altitude 10° 06:25:18 10° 338° (NNW) 2,042 ? -10.2°
Maximum altitude 06:26:56 12° 359° (N) 1,926 ? -9.9°
Drops below altitude 10° 06:28:34 10° 20° (NNE) 2,029 ? -9.7°
Sets 06:32:27 0° 53° (NE) 2,922 ? -9.1°
